Regional Weather Roundup
Issued by NWS

Home | Current Version | Previous Version | Graphics & Text | Print | Product List | Glossary On
Versions: 1 2 3 4 5 6 7 8 9 10 11 12 13 14 15 16 17 18 19 20 21 22 23 24 25 26 27 28 29 30 31 32 33 34 35 36 37 38 39 40 41 42 43 44 45 46 47 48 49 50
000
ASUS44 KMEG 190210
RWRTN
TENNESSEE HOURLY STATE WEATHER ROUNDUP
NATIONAL WEATHER SERVICE MEMPHIS TN
900 PM CDT FRI AUG 18 2017

TNZ002-004-019-021-049-052-054-088>092-190300-
WEST TENNESSEE

CITY           SKY/WX    TMP DP  RH WIND       PRES   REMARKS
MEMPHIS INTL   PTCLDY    80  71  74 S3        29.98R
NWS MEMPHIS      N/A     77 N/A N/A MISG        N/A
JACKSON        CLEAR     71  70  96 CALM      29.99R
DYERSBURG      CLEAR     73  70  90 CALM      29.98S
SOMERVILLE     CLEAR     73  72  94 CALM      29.98S
COVINGTON      CLEAR     73  72  94 CALM      29.97S
UNION CITY     CLEAR     73  68  83 S5        29.96S
BOLIVAR        CLEAR     72  70  94 CALM      29.99R
PARIS          PTCLDY    70  70 100 CALM      29.98R
HUNTINGDON     MOCLDY    73  72  94 CALM      29.98R
LEXINGTON      CLEAR     72  72 100 CALM      29.99S
SELMER         CLEAR     70  68  94 CALM      29.99S
SAVANNAH       PTCLDY    72  70  94 CALM      29.99R
$$

TNZ008-025-027-028-033-062-065-066-190300-
NORTH MIDDLE TENNESSEE

CITY           SKY/WX    TMP DP  RH WIND       PRES   REMARKS
NASHVILLE      CLEAR     76  66  71 SW3       29.99S
PORTLAND       CLEAR     73  68  83 S3        29.98S
CLARKSVILLE    CLEAR     76  66  71 SW5       29.99R
SMYRNA         CLEAR     73  67  81 CALM      30.00R
COOKEVILLE       N/A     68  66  94 CALM      30.01R
GALLATIN       PTCLDY    73  66  78 CALM      30.01R
CROSSVILLE     CLEAR     68  65  90 CALM      30.06R
$$

TNZ061-075-076-078-094-096-097-190300-
SOUTH MIDDLE TENNESSEE

CITY           SKY/WX    TMP DP  RH WIND       PRES   REMARKS
FAYETTEVILLE   CLEAR     77  68  73 NW3       30.01R
TULLAHOMA      CLEAR     70  66  88 CALM      30.03S
WINCHESTER     CLEAR     72  70  94 CALM      30.02R
MCMINNVILLE    CLEAR     72  72 100 CALM      30.02R
COLUMBIA       CLEAR     73  73 100 CALM      29.98S
SHELBYVILLE    CLEAR     70  70 100 CALM      30.00S
$$

TNZ017-018-042-046-047-190300-
NORTHEAST TENNESSEE

CITY           SKY/WX    TMP DP  RH WIND       PRES   REMARKS
TRI CITIES     PTCLDY    75  64  68 W7        30.00R
ELIZABETHTON   CLOUDY    72  72 100 CALM      30.00R
$$

TNZ012-013-036-069-073-074-190300-
CENTRAL EAST TENNESSEE

CITY           SKY/WX    TMP DP  RH WIND       PRES   REMARKS
KNOXVILLE      PTCLDY    78  64  61 NW5       29.99R
OAK RIDGE      CLEAR     77  66  68 CALM      30.01R
DOWNTOWN KNOXV   N/A     72  68  88 CALM      29.98R
GATLINBURG     PTCLDY    73  64  73 CALM      29.99R
MORRISTOWN     PTCLDY    77  66  69 NW5       30.00R
JACKSBORO      CLEAR     70  66  88 CALM      30.05R
$$

TNZ083-085-099-190300-
SOUTHEAST TENNESSEE

CITY           SKY/WX    TMP DP  RH WIND       PRES   REMARKS
CHATTANOOGA    PTCLDY    77  69  76 W5        29.99R
DAYTON         MOCLDY    75  72  88 CALM      29.98S
$$

SKY/WX REPORTED AS FAIR MEANS FEW OR NO CLOUDS BELOW
12 THOUSAND FEET.





USA.gov is the U.S. government's official web portal to all federal, state and local government web resources and services.